Weather in Chembiley

Russia / Nizhny Novgorod Oblast'     55°19′49″N   45°43′50″E
temp.,
°C
wind,
m/s
gust,
m/s
humid.,
%
clouds,
%
prec.,
mm/h
press.,
hPa
HPBL,
m
9 march, tue
tue900:00−14w45940 0.0 100578
03:00−15w45975 0.0 100783
06:00−17w349857 0.0 100859
09:00−15wnw359678 0.1 1010216
12:00−13wnw349497 0.0 1010299
15:00−11nw469299 0.1 1011511
18:00−13wnw489595 0.1 1012223
21:00−14nw489695 0.3 1013270
10 march, wed
wed1000:00−15nnw4996100 0.1 1014271
03:00−18nnw5997100 0.3 1016277
06:00−22nnw5998100 0.1 1017289
09:00−23nnw5996100 0.1 1020329
12:00−21nnw689388 0.0 1021412
15:00−19nnw698994 0.0 1022573
18:00−21nw479578 0.0 1024100
21:00−22nw4710064 0.0 1025114
11 march, thu
thu1100:00−22wnw479995 0.0 1026121
03:00−23wnw4610098 0.1 1027122
06:00−25wnw479986 0.0 1028101
09:00−21wnw589652 0.0 1028228
12:00−16wnw6109287 0.0 1028390
15:00−12nw599393 0.2 1028481
18:00−12nw499399 0.1 1029247
21:00−15nw479680 0.1 1030105
12 march, fri
fri1200:00−16nw34960 0.0 103158
03:00−18wnw34940 0.0 103237
06:00−19w34960 0.0 103352
09:00−16w46900 0.0 1034193
12:00−12wsw47890 0.0 1033283
15:00−10wsw48877 0.0 1032448
18:00−13sw479126 0.0 103296
21:00−15sw489219 0.0 1033128
13 march, sat
sat1300:00−16sw489311 0.0 1034134
03:00−17sw510905 0.0 1034144
06:00−19sw410900 0.0 1034140
09:00−15ssw69880 0.0 1033240
12:00−11ssw610850 0.0 1032362
15:00−9ssw611840 0.0 1030524
18:00−12ssw513870 0.0 1028337
21:00−11ssw7148917 0.0 1028517